Terminal Aerodrome Forecast
Issued by NWS

Home | Current Version | Previous Version | Text Only | Print | Product List | Glossary On
Versions: 1 2 3 4 5 6 7 8 9 10 11 12 13 14 15 16 17 18 19 20 21 22 23 24
000
FTUS46 KSGX 292300
TAFSAN
TAF
KSAN 292323Z 3000/3106 31008KT P6SM FEW012
     FM300200 VRB04KT P6SM SCT010
     FM300800 VRB04KT P6SM OVC010
     FM301600 20006KT P6SM SCT012
     FM301900 22008KT P6SM FEW012
     FM310200 20005KT P6SM BKN015=

USA.gov is the U.S. government's official web portal to all federal, state and local government web resources and services.